This demonstration page uses our WeatherBlox Daily Observations layout. Learn more.

Left ArrowRight Arrow

39.29038, -76.61219

Hourly Observations for January 13, 2015

Temp ( °F °C ) Dew Point ( °F °C ) Humidity (%) Winds ( mph kmh ) Pressure ( in mb ) Visibility ( mi km ) Precip ( " mm )
12:54 am 00:54 undefined 40 4.4 31 -0.6 70 70 undefined N/A 30.28 1025 N/A 0.00 0.00
1:54 am 01:54 undefined 38 3.3 27 -2.8 65 65 undefined N/A 30.31 1026 N/A 0.00 0.00
2:54 am 02:54 undefined 37 2.8 26 -3.3 65 65 undefined N/A 30.35 1028 N/A 0.00 0.00
3:54 am 03:54 undefined 37 2.8 24 -4.4 59 59 undefined N/A 30.37 1029 N/A 0.00 0.00
4:54 am 04:54 undefined 36 2.2 25 -3.9 64 64 undefined N/A 30.40 1030 N/A 0.00 0.00
5:54 am 05:54 undefined 35 1.7 23 -5 61 61 undefined N/A 30.42 1030 N/A 0.00 0.00
6:54 am 06:54 undefined 34 1.1 22 -5.6 61 61 undefined N/A 30.45 1031 N/A 0.00 0.00
7:54 am 07:54 undefined 31 -0.6 14 -10 49 49 undefined N/A 30.49 1033 N/A 0.00 0.00
8:54 am 08:54 undefined 29 -1.7 12 -11.1 49 49 undefined N/A 30.54 1034 N/A 0.00 0.00
9:54 am 09:54 undefined 29 -1.7 9 -12.8 43 43 undefined N/A 30.58 1035 N/A 0.00 0.00
10:54 am 10:54 undefined 29 -1.7 7 -13.9 39 39 undefined N/A 30.58 1036 N/A 0.00 0.00
11:54 am 11:54 undefined 29 -1.7 7 -13.9 39 39 undefined N/A 30.56 1035 N/A 0.00 0.00
12:54 pm 12:54 undefined 30 -1.1 7 -13.9 38 38 undefined N/A 30.55 1035 N/A 0.00 0.00
1:54 pm 13:54 undefined 31 -0.6 9 -12.8 40 40 undefined N/A 30.55 1034 N/A 0.00 0.00
2:54 pm 14:54 undefined 30 -1.1 9 -12.8 41 41 undefined N/A 30.53 1034 N/A 0.00 0.00
3:54 pm 15:54 undefined 29 -1.7 10 -12.2 45 45 undefined N/A 30.51 1033 N/A 0.00 0.00
4:54 pm 16:54 undefined 29 -1.7 10 -12.2 45 45 undefined N/A 30.55 1035 N/A 0.00 0.00
5:54 pm 17:54 undefined 29 -1.7 9 -12.8 43 43 undefined N/A 30.58 1036 N/A 0.00 0.00
6:54 pm 18:54 undefined 28 -2.2 6 -14.4 39 39 undefined N/A 30.58 1035 N/A 0.00 0.00
7:54 pm 19:54 undefined 27 -2.8 7 -13.9 43 43 undefined N/A 30.58 1035 N/A 0.00 0.00
8:54 pm 20:54 undefined 26 -3.3 8 -13.3 46 46 undefined N/A 30.58 1035 N/A 0.00 0.00
9:54 pm 21:54 undefined 26 -3.3 7 -13.9 44 44 undefined N/A 30.54 1034 N/A 0.00 0.00
10:54 pm 22:54 undefined 26 -3.3 8 -13.3 46 46 undefined N/A 30.54 1034 N/A 0.00 0.00
11:54 pm 23:54 undefined 25 -3.9 8 -13.3 48 48 undefined N/A 30.49 1033 N/A 0.00 0.00

Powered by AerisWeather